CAPE
0 0 0 0 0 0 1726 1903 1840 1843 1409 990 826 691 671 598 647 500 724 748 566 355 216 130 123 84 4 0 0 0 4 37
0 0 0 0 0 0 1675 1915 1769 1740 1496 1389 1030 871 671 494 521 721 598 581 383 228 157 91 124 45 0 0 1 8 19 30
0 0 0 0 0 0 1702 1914 1935 1897 1662 1419 1040 571 262 315 441 588 506 428 231 128 170 165 76 2 3 19 16 14 12 46
0 0 0 0 0 17 1851 1940 1982 1732 1317 591 321 185 177 161 214 315 373 516 167 109 110 122 111 91 46 33 15 4 5 18
0 0 0 0 0 1235 1834 1831 1786 1443 1000 975 470 495 352 246 194 203 249 283 255 95 99 59 50 25 51 56 6 0 1 2
6 28 6 0 22 1977 1914 1691 1679 1445 948 678 367 246 122 151 170 161 188 90 114 102 64 3 40 27 58 114 34 0 0 1
15 12 2 4 0 1310 1853 1594 1615 1405 876 639 485 313 165 200 160 114 130 203 138 67 84 49 4 13 37 44 68 10 1 1
0 0 0 0 0 0 1369 1518 1499 1299 1006 816 630 422 198 116 122 115 25 1 0 0 0 0 0 1 11 18 45 40 1 0
0 0 0 0 3 15 929 1297 1367 986 938 777 596 455 184 123 146 46 0 0 0 0 0 0 2 0 3 2 16 24 9 1
0 0 0 0 0 200 745 811 995 834 694 623 678 454 183 244 97 51 0 0 0 0 0 0 0 1 1 1 11 6 22 2
0 0 0 0 0 1 71 146 250 712 781 678 593 287 132 95 70 29 0 0 0 0 0 0 2 1 1 1 8 1 3 0
0 0 0 0 0 0 1 24 365 303 545 599 314 140 238 105 67 25 6 0 0 0 0 1 1 1 1 0 1 1 1 1
0 0 0 0 1 0 0 0 120 108 278 218 202 72 70 160 188 126 68 21 1 0 0 0 0 1 0 0 0 1 1 11
0 0 1 1 1 2 1 1 0 65 73 23 24 9 43 73 117 63 51 41 4 0 0 0 0 2 0 0 0 0 0 0
1 2 2 2 2 2 2 2 1 0 1 1 6 0 0 0 2 12 5 0 4 4 1 1 0 0 0 0 0 0 0 0
4 4 4 3 2 2 2 2 2 1 1 1 1 1 0 0 0 0 0 0 0 0 0 0 0 0 0 0 0 0 0 0
3 3 4 4 3 2 2 7 16 1 2 3 4 0 0 0 0 0 0 0 0 0 0 0 0 0 0 0 0 0 0 0
5 7 7 6 3 4 2 2 4 8 2 2 1 2 1 0 0 0 0 1 1 1 1 1 1 1 0 0 0 0 0 0
4 5 5 3 2 3 2 1 1 1 1 2 2 2 3 1 0 1 1 1 1 1 1 2 2 3 1 1 0 0 1 1
CIN
-0 -0 -0 -0 -0 -0 -135 -155 -231 -229 -226 -289 -328 -332 -309 -313 -305 -314 -203 -160 -171 -176 -161 -145 -85 -60 -50 -0 -0 -12 -63 -29
-0 -0 -0 -0 -0 -0 -138 -136 -179 -221 -178 -195 -270 -289 -299 -330 -318 -250 -193 -194 -219 -227 -191 -156 -69 -67 -0 -0 -69 -62 -43 -12
-0 -0 -0 -0 -0 -0 -137 -162 -169 -203 -173 -194 -274 -370 -434 -395 -311 -273 -238 -234 -255 -257 -165 -104 -102 -24 -22 -35 -39 -44 -19 -4
-0 -0 -0 -0 -0 -309 -173 -177 -157 -204 -226 -309 -377 -425 -426 -451 -451 -372 -252 -190 -241 -229 -160 -109 -83 -65 -52 -46 -47 -50 -46 -18
-0 -0 -0 -0 -0 -223 -188 -186 -186 -220 -262 -244 -345 -343 -360 -422 -464 -398 -295 -227 -160 -208 -139 -136 -96 -89 -44 -26 -55 -13 -57 -29
-366 -331 -385 -0 -111 -148 -176 -199 -185 -207 -277 -318 -397 -396 -434 -437 -430 -381 -310 -308 -207 -185 -164 -122 -66 -39 -19 -5 -24 -1 -0 -69
-435 -491 -386 -371 -0 -191 -159 -191 -182 -237 -286 -305 -336 -367 -365 -344 -405 -369 -308 -170 -172 -227 -113 -71 -31 -48 -18 -8 -3 -29 -1 -12
-0 -0 -0 -0 -0 -0 -123 -187 -204 -256 -254 -223 -274 -307 -343 -388 -424 -358 -412 -80 -0 -0 -0 -0 -0 -8 -41 -7 -1 -5 -9 -0
-0 -0 -0 -0 -227 -539 -150 -138 -192 -227 -221 -215 -241 -247 -354 -383 -426 -438 -0 -0 -0 -0 -0 -0 -2 -0 -30 -34 -6 -0 -6 -1
-0 -0 -0 -0 -0 -301 -204 -238 -214 -211 -222 -195 -167 -220 -353 -308 -461 -393 -0 -0 -0 -0 -2 -1 -0 -2 -1 -0 -3 -7 -1 -2
-0 -0 -0 -0 -0 -0 -304 -241 -212 -182 -151 -116 -140 -249 -350 -407 -442 -409 -0 -0 -0 -0 -0 -0 -0 -0 -0 -0 -38 -0 -4 -13
-0 -0 -0 -0 -0 -0 -0 -169 -89 -79 -118 -94 -183 -284 -317 -388 -378 -361 -227 -0 -0 -0 -0 -1 -0 -0 -0 -0 -0 -0 -0 -0
-0 -0 -0 -0 -0 -0 -0 -0 -117 -164 -124 -144 -214 -266 -332 -282 -220 -224 -241 -232 -39 -0 -0 -0 -0 -0 -0 -0 -0 -0 -0 -5
-0 -0 -0 -0 -0 -0 -0 -0 -0 -134 -169 -227 -241 -278 -289 -256 -217 -245 -225 -193 -29 -10 -9 -0 -0 -0 -0 -0 -0 -0 -0 -0
-0 -0 -0 -0 -0 -0 -0 -0 -0 -0 -102 -34 -187 -0 -0 -0 -97 -132 -151 -21 -23 -13 -11 -0 -0 -0 -0 -0 -0 -0 -0 -0
-0 -0 -0 -0 -0 -0 -0 -0 -0 -0 -0 -0 -0 -0 -0 -0 -0 -0 -0 -0 -0 -0 -0 -0 -0 -0 -0 -0 -0 -0 -0 -0
-0 -0 -0 -0 -0 -0 -0 -0 -0 -0 -0 -0 -0 -0 -0 -0 -0 -0 -0 -0 -0 -0 -0 -0 -0 -0 -0 -0 -0 -0 -0 -0
-0 -0 -0 -0 -0 -0 -0 -0 -0 -0 -0 -0 -0 -0 -0 -0 -0 -0 -0 -0 -0 -0 -0 -0 -0 -0 -0 -0 -0 -0 -0 -0
-0 -0 -0 -0 -0 -0 -0 -0 -0 -0 -0 -0 -0 -0 -0 -0 -0 -0 -0 -0 -0 -0 -0 -0 -0 -0 -0 -0 -0 -0 -0 -0
Wind_Speed
8 10 12 14 15 9 18 16 19 16 11 8 7 6 4 4 5 5 7 6 7 7 6 7 7 6 6 6 8 5 5 5
11 10 10 15 17 10 19 17 17 14 11 11 9 9 7 5 5 7 6 6 6 8 6 7 7 8 9 9 7 9 5 5
17 16 11 10 17 11 19 19 19 16 11 10 8 9 4 4 4 5 6 7 7 8 8 8 10 7 7 8 9 5 3 8
17 16 14 8 10 11 19 21 20 16 12 9 8 7 5 3 4 4 5 8 9 9 9 8 9 8 8 10 10 10 7 7
7 11 9 8 9 14 19 20 20 14 16 13 14 10 8 4 5 5 7 8 8 8 8 8 9 7 9 10 10 10 7 10
11 11 12 12 5 16 19 20 19 17 16 15 11 8 5 6 5 9 8 8 10 10 9 8 8 6 8 11 13 12 9 10
13 13 14 13 12 8 20 21 19 18 17 15 15 13 9 8 7 6 6 7 7 7 8 8 9 9 10 9 13 13 11 10
15 16 16 15 14 11 11 20 17 18 17 13 15 15 12 11 8 8 9 6 3 6 4 4 5 9 11 11 12 13 14 12
15 16 16 17 18 12 11 15 15 14 13 11 12 13 6 7 9 7 6 4 6 6 5 6 6 6 6 10 9 12 13 14
14 17 16 19 20 14 4 13 13 14 11 11 12 9 10 8 9 8 7 6 5 7 6 5 5 5 8 10 8 9 13 14
15 15 18 18 18 16 11 9 6 10 12 7 8 8 8 10 9 8 8 8 8 8 7 5 5 4 5 6 4 8 12 13
15 15 15 16 17 18 16 8 9 6 7 8 10 9 11 10 8 8 6 8 8 9 8 7 5 4 4 4 4 8 8 11
13 15 16 17 16 17 16 16 3 3 6 7 7 9 10 9 8 8 9 9 9 9 8 7 5 4 5 4 4 4 12 10
15 15 15 15 16 14 14 14 13 5 7 9 6 7 8 7 6 5 6 8 7 8 8 8 7 6 5 4 5 5 5 9
14 14 14 13 13 15 15 14 13 5 9 7 6 9 8 8 6 6 7 6 4 6 5 5 5 5 4 5 6 5 6 6
16 14 13 13 14 13 14 14 14 13 10 12 9 10 10 10 11 10 10 11 9 9 10 10 8 7 4 3 5 5 5 6
16 16 15 14 14 12 12 14 13 14 13 13 9 11 11 10 11 10 11 11 11 11 11 10 10 6 4 4 8 9 9 9
14 14 13 12 13 11 11 11 11 15 15 14 14 12 10 12 12 11 12 12 11 12 11 11 11 10 15 17 18 11 11 10
12 11 12 13 13 11 9 11 12 15 16 16 13 14 12 11 14 13 12 11 12 11 11 11 11 11 17 18 21 14 13 12
Wind_Direction
259 229 216 209 223 187 174 174 175 163 147 145 142 150 150 163 178 186 178 165 161 146 151 142 145 150 158 164 169 168 166 154
271 259 218 214 219 184 169 171 172 154 159 158 157 169 168 185 179 169 171 154 146 143 148 145 155 166 175 169 160 162 161 141
263 254 235 211 216 173 165 168 170 168 166 160 159 153 162 165 168 140 167 155 150 146 153 167 166 161 157 167 167 160 162 162
233 244 237 210 217 165 166 167 170 166 149 133 126 121 119 136 169 159 183 153 162 164 170 172 167 162 170 170 171 175 166 162
309 246 222 215 219 170 162 164 160 157 152 156 155 163 166 171 167 170 180 166 172 172 182 180 182 180 176 181 180 179 164 174
28 18 13 344 193 160 159 159 162 160 159 159 148 155 143 146 157 168 171 181 188 186 187 176 180 185 198 190 183 184 183 179
23 14 2 3 344 188 163 163 163 164 161 153 160 159 161 165 163 176 164 175 176 176 188 190 192 189 196 191 187 186 183 185
16 7 357 344 329 318 198 160 159 166 165 158 159 162 167 173 162 165 148 155 139 156 170 179 196 198 198 200 198 190 182 176
15 1 356 343 333 299 158 164 155 163 161 158 151 158 159 162 149 150 142 158 140 145 184 209 211 221 219 205 211 187 184 184
10 0 0 349 344 354 155 153 142 151 156 145 151 152 143 148 135 144 149 137 143 163 168 193 200 210 211 209 214 179 179 182
11 5 0 352 347 349 20 74 66 143 136 139 143 142 128 133 134 142 148 158 156 158 165 178 194 183 174 187 185 182 185 179
7 4 3 358 354 359 4 15 115 241 131 115 136 132 132 128 140 155 157 153 161 162 167 173 181 153 145 149 172 172 166 179
12 7 3 7 1 357 0 352 319 36 97 120 128 143 134 140 144 164 160 160 166 159 158 164 159 148 145 137 130 139 178 182
15 12 8 1 359 358 357 352 341 93 91 95 98 103 106 110 122 125 132 150 156 149 157 164 161 164 139 133 128 121 109 110
19 9 6 2 357 358 355 350 358 30 92 80 102 96 97 85 75 70 73 64 95 114 111 104 95 109 137 144 136 130 120 120
18 10 3 2 360 360 359 0 7 23 57 74 66 78 67 67 68 64 65 65 62 74 82 76 72 68 38 33 149 141 142 129
17 9 7 5 0 1 6 7 16 34 34 47 48 68 76 65 65 67 71 67 61 63 60 64 58 44 19 60 88 84 69 91
18 11 359 4 2 354 16 15 27 43 41 38 40 44 63 78 70 60 66 68 67 63 59 62 60 49 53 74 80 78 78 70
22 11 4 9 4 1 18 37 39 53 47 42 37 48 40 55 75 68 63 65 63 64 61 54 66 60 63 75 84 84 78 71